sat.trackr.live / text

‹ back to catalog

STARLINK-35789

NORAD 67113 · 2025-299M

PAYLOAD ACTIVE UNKNOWN

§ Identity

Operator
Country
US
Launch date
2025-12-15
Launch site
AFETR
Launch vehicle
Mass (kg)
RCS (m²)

Purposes: comms

External: N2YO · Heavens-Above · Gunter

§ Orbital elements

Epoch: 2026-09-19T10:13:31.092384Z

Period
94.27 min
Inclination
43.0032°
Eccentricity
0.0001259
Mean motion
15.27590345 rev/d
Perigee alt
482.2 km
Apogee alt
483.9 km
Semi-major
6,861.2 km
B*
4.6712e-4
RAAN
155.0489°
Arg perigee
270.0581°
Mean anomaly
90.0127°
Rev number
4,274

§ Raw data

STARLINK-357891 67113U 25299M   26262.42605431  .00012618  00000+0  46712-3 0  99982 67113  43.0032 155.0489 0001259 270.0581  90.0127 15.27590345 42741

JSON: /api/v1/satellites/67113 · /tle

For live sub-satellite position, see the globe view (requires WebGL).

§ Visibility from observer

Set your observer location to see the next 7 days of passes ≥ 10°. The values pass through the URL so the page stays shareable.

No JS? Fill the form by hand. The geolocation button needs JavaScript.